Location: Sungai Bunut
(2.6333°N, 113.7333°E)
Time: 20:04:54
(UTC+00:00)

Tiros 1 - All Passes

Search period start: 06 December 2023 00:00
Search period end: 16 December 2023 00:00
Orbit: 625 x 659 km, 48.4° (Epoch: 06 December)

Date Brightness Start Highest point End Pass type
(mag) Time Alt. Az. Time Alt. Az. Time Alt. Az.
06 Dec - 03:47:27 10° NNE 03:50:04 15° NE 03:52:39 10° E daylight
06 Dec - 05:27:37 10° WNW 05:32:03 43° SW 05:36:27 10° SSE daylight
06 Dec - 16:00:27 10° S 16:03:27 17° SE 16:06:28 10° E night (unlit)
06 Dec - 17:41:01 10° WSW 17:45:21 37° NW 17:49:44 10° NNE night (unlit)
07 Dec - 04:10:09 10° NNW 04:14:38 45° NE 04:19:04 10° ESE daylight
07 Dec - 05:54:09 10° W 05:56:32 14° SW 05:58:55 10° SSW daylight
07 Dec - 16:23:22 10° SSW 16:27:55 53° SE 16:32:30 10° NE night (unlit)
07 Dec - 18:07:59 10° WNW 18:09:57 12° NW 18:11:55 10° NNW night (unlit)
08 Dec - 02:55:13 10° NNE 02:57:04 12° NE 02:58:55 10° ENE daylight
08 Dec - 04:34:31 10° NW 04:39:05 53° SW 04:43:38 10° SSE daylight
08 Dec - 15:08:07 10° SSE 15:10:29 14° SE 15:12:51 10° E night (unlit)
08 Dec - 16:47:55 10° SW 16:52:23 45° NW 16:56:54 10° NNE night (unlit)
09 Dec - 03:17:19 10° NNW 03:21:40 37° NE 03:25:58 10° ESE daylight
09 Dec - 05:00:33 10° W 05:03:34 17° SW 05:06:34 10° S daylight
09 Dec - 15:30:33 10° SSW 15:34:57 43° SE 15:39:24 10° ENE night (unlit)
09 Dec - 17:14:16 10° W 17:16:57 15° NW 17:19:38 10° NNW night (unlit)
10 Dec - 03:41:28 10° NW 03:46:07 66° SW 03:50:45 10° SSE daylight
10 Dec - 14:16:09 10° SE 14:17:29 11° SE 14:18:50 10° ESE night (unlit)
10 Dec - 15:54:51 10° SW 15:59:24 56° NW 16:04:01 10° NNE night (unlit)
11 Dec - 02:24:31 10° NNW 02:28:40 30° NE 02:32:48 10° ESE daylight
11 Dec - 04:07:06 10° W 04:10:35 20° SW 04:14:02 10° S daylight
11 Dec - 14:37:45 10° SSW 14:41:59 35° SE 14:46:15 10° ENE night (unlit)
11 Dec - 16:20:46 10° W 16:23:56 18° NW 16:27:08 10° N night (unlit)
12 Dec - 02:48:25 10° NW 02:53:08 81° SW 02:57:50 10° SE daylight
12 Dec - 15:01:48 10° SW 15:06:25 69° NW 15:11:05 10° NNE night (unlit)
13 Dec - 01:31:45 10° N 01:35:40 25° NE 01:39:33 10° ESE daylight
13 Dec - 03:13:45 10° WNW 03:17:35 25° SW 03:21:25 10° S daylight
13 Dec - 13:45:01 10° S 13:49:00 29° SE 13:53:01 10° ENE night (unlit)
13 Dec - 15:27:23 10° W 15:30:56 21° NW 15:34:30 10° N night (unlit)
14 Dec - 01:55:25 10° NW 02:00:09 82° NE 02:04:52 10° SE daylight
14 Dec - 14:08:48 10° SW 14:13:27 85° NW 14:18:06 10° NE night (unlit)
15 Dec - 00:39:03 10° N 00:42:39 21° NE 00:46:13 10° E daylight
15 Dec - 02:20:27 10° WNW 02:24:35 30° SW 02:28:42 10° S daylight
15 Dec - 12:52:18 10° S 12:56:00 24° SE 12:59:43 10° ENE visible
15 Dec - 14:34:03 10° WSW 14:37:55 26° NW 14:41:47 10° N night (unlit)
